Regional Weather Roundup
Issued by NWS

Home | Current Version | Previous Version | Graphics & Text | Print | Product List | Glossary On
Versions: 1 2 3 4 5 6 7 8 9 10 11 12 13 14 15 16 17 18 19 20 21 22 23 24 25 26 27 28 29 30 31 32 33 34 35 36 37 38 39 40 41 42 43 44 45 46 47 48 49 50
000
ASUS43 KMKX 300320
RWRWI

WISCONSIN REGIONAL WEATHER ROUNDUP
NATIONAL WEATHER SERVICE MILWAUKEE/SULLIVAN WI
1000 PM CDT SUN MAR 29 2015

NOTE: "FAIR" INDICATES FEW OR NO CLOUDS BELOW 12,000 FEET WITH NO
SIGNIFICANT WEATHER AND/OR OBSTRUCTIONS TO VISIBILITY.

WIZ001-002-006>008-014>016-023>028-300400-
NORTHWEST WISCONSIN

CITY           SKY/WX    TMP DP  RH WIND       PRES   REMARKS
SUPERIOR ARPT  CLEAR     39  26  58 W7        29.85R WCI  34
ASHLAND        PTCLDY    36  27  69 W8        29.82R WCI  30
HAYWARD        CLEAR     39  26  59 VRB5      29.85R
SIREN          CLEAR     40  25  55 W7        29.89R WCI  35
CUMBERLAND     CLEAR     37  27  65 W10       29.87R WCI  30
RICE LAKE      CLEAR     41  26  55 W8        29.89R
CHETEK         CLEAR     41  27  56 W8        29.87R
LADYSMITH      MOCLDY    37  29  71 W6        29.86R WCI  33
EAU CLAIRE     CLEAR     41  26  55 W8        29.89R
MENOMONIE      CLEAR     42  27  55 W9        29.91R
NEW RICHMOND   CLEAR     38  26  61 W6        29.92R WCI  34
OSCEOLA        CLEAR     42  27  56 W3        29.94R
$$

WIZ003>005-009-010-017-018-300400-
NORTH CENTRAL WISCONSIN

CITY           SKY/WX    TMP DP  RH WIND       PRES   REMARKS
MANITOWISH WTR MOCLDY    35  30  82 NW7       29.77R WCI  29
ARBOR VITAE    CLOUDY    37  31  81 NW7       29.77R WCI  31
WOODRUFF       CLOUDY    37  31  81 NW7       29.77R WCI  31
RHINELANDER    CLOUDY    36  30  79 NW10      29.78R WCI  28
EAGLE RIVER    CLOUDY    35  28  76 NW10G17   29.75R WCI  27
LAND O LAKES   CLOUDY    36  31  83 NW10G17   29.74R WCI  28
PHILLIPS       MOCLDY    35  29  80 CALM      29.81R
TOMAHAWK       MOCLDY    37  29  74 NW10G16   29.80R WCI  30
MEDFORD        CLOUDY    35  31  83 W5        29.83R WCI  31
MERRILL        MOCLDY    37  31  79 NW8       29.81R WCI  31
$$

WIZ029-030-035-036-043>047-300400-
CENTRAL WISCONSIN

CITY           SKY/WX    TMP DP  RH WIND       PRES   REMARKS
WAUSAU         CLOUDY    38  31  76 NW9       29.80R WCI  31
MOSINEE        CLOUDY    36  32  87 W10       29.84R WCI  28
MARSHFIELD     CLEAR     37  30  75 W7        29.84R WCI  32
STEVENS POINT  MOCLDY    37  31  77 W6        29.84R WCI  33
WAUPACA        CLOUDY    42  32  66 W12       29.84R
WAUTOMA        MOCLDY    37  32  82 W6        29.86R WCI  32
WISC RAPIDS    CLEAR     36  29  75 W5        29.86R WCI  32
CAMP DOUGLAS   CLEAR     29  29 100 W8        29.86R WCI  21
$$

WIZ011>013-019>022-031-037>040-048>050-300400-
NORTHEAST WISCONSIN

CITY           SKY/WX    TMP DP  RH WIND       PRES   REMARKS
ANTIGO         CLOUDY    36  31  81 NW16G22   29.78R WCI  26
SHAWANO        MOCLDY    40  32  74 NW13G25   29.79R WCI  33
OCONTO         CLOUDY    39  32  75 W17       29.74R WCI  30
STURGEON BAY   CLOUDY    37  30  75 W15       29.75R WCI  28
GREEN BAY      CLOUDY    39  32  76 W14       29.78R WCI  31
MANITOWOC      CLOUDY    40  34  79 W16G23    29.78R WCI  31
APPLETON       MOCLDY    39  30  70 W15G23    29.81R WCI  31
CLINTONVILLE   MOCLDY    37  32  81 NW14G20   29.80R WCI  29
OSHKOSH        MOCLDY    40  29  64 W10       29.82R WCI  33
$$

WIZ032>034-041-042-053>061-300400-
SOUTHWEST WISCONSIN

CITY           SKY/WX    TMP DP  RH WIND       PRES   REMARKS
LA CROSSE      CLEAR     46  29  51 W10       29.91R
SPARTA         CLEAR     45  26  48 W6        29.90R
VIROQUA        CLEAR     41  30  66 W13       29.90R
BOSCOBEL       CLEAR     46  29  51 W5        29.92R
PRAIRIE DU CHI CLEAR     44  27  52 W15G21    29.94R
PLATTEVILLE    CLEAR     41  32  69 W10       29.93R
$$

WIZ056-057-062-063-064-067-068-300400-
SOUTH CENTRAL WISCONSIN

CITY           SKY/WX    TMP DP  RH WIND       PRES   REMARKS
REEDSBURG      CLEAR     34  33  96 CALM      29.87R
BARABOO/DELLS  CLEAR     32  30  94 SW3       29.87R
LONE ROCK      CLEAR     45  29  53 W12       29.89R
MINERAL POINT  CLEAR     43  30  61 W14       29.90R
MADISON        MOCLDY    34  30  85 CALM      29.88R
MIDDLETON      PTCLDY    36  32  87 CALM      29.88R
WATERTOWN      CLEAR     38  35  89 W6        29.87R WCI  33
MONROE         CLEAR     39  32  75 W17       29.89R WCI  30
JANESVILLE     CLEAR     36  32  87 W3        29.89R
$$

WIZ051-052-058>065-066-070>072-300400-
SOUTHEAST WISCONSIN

CITY           SKY/WX    TMP DP  RH WIND       PRES   REMARKS
MILWAUKEE      PTCLDY    43  29  57 NW23G36   29.86R
WAUKESHA       MOCLDY    37  32  81 W10       29.87R WCI  30
MILWAUKEE/TIMM PTCLDY    41  28  60 NW23G31   29.85R
RACINE         PTCLDY    43  31  62 NW15G23   29.88R
BURLINGTON     PTCLDY    37  32  84 W6        29.89R WCI  32
KENOSHA        PTCLDY    41  35  79 W10       29.87R
FOND DU LAC    CLOUDY    41  30  65 NW12      29.84R
SHEBOYGAN      MOCLDY    40  31  70 NW17G24   29.80R WCI  31
WEST BEND      PTCLDY    39  28  65 W14G26    29.83R WCI  31
JUNEAU         CLEAR     37  32  82 W6        29.87R WCI  32
$$

LSZ147-162-300400-
LAKE SUPERIOR

STATION/POSITION TIME  TEMP    WIND        PRES    WAVE
                       AIR SEA DIR/SP/G            HT/PER
                 (UTC) (F)     (DEG/KT/KT) (MB)    (FT/S)
DEVILS ISLAND    0300   39     260/ 16/ 19 1009.2R
PORT WING        0240   41     270/ 11/ 17 1010.2R
SAXON HARBOR     0200   41     250/  3/ 10 1008.8R
$$

LMZ867-665-643>646-300400-
LAKE MICHIGAN

STATION/POSITION TIME  TEMP    WIND        PRES    WAVE
                       AIR SEA DIR/SP/G            HT/PER
                 (UTC) (F)     (DEG/KT/KT) (MB)    (FT/S)
NORTHPORT PIER   0200   38     290/ 11/ 20 1003.7R
SISTER BAY       0247   36     300/ 17/ 19   N/A
KEWAUNEE LAKESHO 0200   40     290/ 14/ 23 1004.9R
SHEBOYGAN LAKESH 0300   42     300/ 16/ 18 1010.0R
PORT WASHINGTON  0200   43     290/  8/ 15 1009.5R
MILWAUKEE LAKESH 0300   44     310/ 19/ 28   N/A
KENOSHA   LAKESH 0300   44     290/ 11/ 19 1011.9R
$$

TC  - TEMPERATURE IN CELSIUS
VSB - VISIBILITY IN STATUTE MILES
WCI - WIND CHILL INDEX
HX  - HEAT INDEX



USA.gov is the U.S. government's official web portal to all federal, state and local government web resources and services.